�N����,����,�g�[���i���ԁj���x,�g�[�����x,��g�[���i���ցj���x,����
 2003/05/01, 0:00,18.2,67,14,16
 2003/05/01, 0:15,17.8,63,14.2,16.5
 2003/05/01, 0:30,17.3,64,14.3,16.6
 2003/05/01, 0:45,17,64,14.1,16.5
 2003/05/01, 1:00,16.9,64,13.9,15.6
 2003/05/01, 1:15,16.8,65,13.8,16
 2003/05/01, 1:30,16.7,65,13.6,16
 2003/05/01, 1:45,16.5,65,13.6,15.9
 2003/05/01, 2:00,16.3,65,13.4,15.9
 2003/05/01, 2:15,16.2,65,13.4,15.9
 2003/05/01, 2:30,16.1,66,13.2,15.8
 2003/05/01, 2:45,15.9,66,13.1,15.8
 2003/05/01, 3:00,15.9,66,13.1,15.8
 2003/05/01, 3:15,15.8,66,12.9,15.7
 2003/05/01, 3:30,15.6,66,12.8,15.7
 2003/05/01, 3:45,15.6,66,12.8,15.6
 2003/05/01, 4:00,15.4,67,12.7,15.6
 2003/05/01, 4:15,15.2,67,12.6,15.6
 2003/05/01, 4:30,15.2,67,12.5,15.5
 2003/05/01, 4:45,15.1,67,12.4,15.5
 2003/05/01, 5:00,15,67,12.5,15.7
 2003/05/01, 5:15,14.9,67,12.2,15.8
 2003/05/01, 5:30,14.8,67,12.2,15.7
 2003/05/01, 5:45,14.6,67,12.3,15.7
 2003/05/01, 6:00,14.7,67,12.8,15.6
 2003/05/01, 6:15,14.6,67.5,13.9,15.6
 2003/05/01, 6:30,14.5,68,15,15.5
 2003/05/01, 6:45,14.6,68.5,15.7,15.5
 2003/05/01, 7:00,14.6,69,16.2,15.4
 2003/05/01, 7:15,14.5,68.5,16.6,15.4
 2003/05/01, 7:30,14.5,66,16.8,15.7
 2003/05/01, 7:45,14.8,68.5,17,15.6
 2003/05/01, 8:00,14.9,67,17.3,15.8
 2003/05/01, 8:15,15,62,17,15.8
 2003/05/01, 8:30,14.9,55,16.9,15.8
 2003/05/01, 8:45,15.2,56,17.2,15.6
 2003/05/01, 9:00,16,62,17,15.7
 2003/05/01, 9:15,16.6,68.5,16.9,15.7
 2003/05/01, 9:30,17.4,75,16.6,15.7
 2003/05/01, 9:45,17.5,66,16.2,15.6
 2003/05/01,10:00,17.4,61,16.1,15.6
 2003/05/01,10:15,17.6,58.5,15.9,15.6
 2003/05/01,10:30,17.7,55,15.9,15
 2003/05/01,10:45,17.8,54,15.9,15.3
 2003/05/01,11:00,17.9,54,15.9,15.3
 2003/05/01,11:15,18,52,15.9,15.4
 2003/05/01,11:30,18.5,49,16,15.6
 2003/05/01,11:45,19.2,50,15.9,15.9
 2003/05/01,12:00,19.9,50,15.9,15.9
 2003/05/01,12:15,20.1,49.5,16,15.9
 2003/05/01,12:30,20.3,50,16,15.9
 2003/05/01,12:45,20.6,49,16,15.9
 2003/05/01,13:00,20.5,47,16.4,15.5
 2003/05/01,13:15,20.5,43.5,16.9,16
 2003/05/01,13:30,20.6,44,17.1,16
 2003/05/01,13:45,20.8,42.5,17.4,16
 2003/05/01,14:00,21,42,17.4,16
 2003/05/01,14:15,21.3,42.5,17.1,15.4
 2003/05/01,14:30,21,45,17,15.8
 2003/05/01,14:45,20.8,47,17,15.8
 2003/05/01,15:00,21.4,47,17.1,15.9
 2003/05/01,15:15,21.7,44.5,17,15.8
 2003/05/01,15:30,22.1,45,17,15.8
 2003/05/01,15:45,22.2,45.5,17.2,15.9
 2003/05/01,16:00,22.4,46,17.2,16
 2003/05/01,16:15,22.3,46.5,17.2,16
 2003/05/01,16:30,21.7,48,17.2,16
 2003/05/01,16:45,21.5,49,17.2,16
 2003/05/01,17:00,21.4,49,17.2,16
 2003/05/01,17:15,21.3,48,17.3,15.9
 2003/05/01,17:30,21,47,17.3,15.7
 2003/05/01,17:45,20.7,47,17.2,16.1
 2003/05/01,18:00,20.4,47,17.2,16.1
 2003/05/01,18:15,20.4,48.5,17.1,16.1
 2003/05/01,18:30,20.3,51,17.1,16.1
 2003/05/01,18:45,20.2,52.5,16.9,16.2
 2003/05/01,19:00,20.1,54,16.8,16.2
 2003/05/01,19:15,20,56,16.5,16.2
 2003/05/01,19:30,20,57,16.4,16.2
 2003/05/01,19:45,19.8,56.5,16.2,16.2
 2003/05/01,20:00,20,57,16,15.9
 2003/05/01,20:15,19.9,58.5,15.9,16.1
 2003/05/01,20:30,20,59,15.6,16.1
 2003/05/01,20:45,19.7,59,15.4,15.9
 2003/05/01,21:00,19.6,60,15.2,15.8
 2003/05/01,21:15,19.5,60,15,15.8
 2003/05/01,21:30,19.4,60,14.9,15.4
 2003/05/01,21:45,19.3,60,14.7,15.6
 2003/05/01,22:00,19.2,60,14.5,15.5
 2003/05/01,22:15,19,60.5,14.4,15.6
 2003/05/01,22:30,18.7,60,14.5,15.5
 2003/05/01,22:45,18.7,59,14.4,15.5
 2003/05/01,23:00,18.9,59,14.4,15.7
 2003/05/01,23:15,18.8,60,14.4,15.6
 2003/05/01,23:30,18.8,60,14.3,15.7
 2003/05/01,23:45,18.8,61,14.2,15.6
 2003/05/02, 0:00,18.9,62,14.1,15.7
 2003/05/02, 0:15,18.8,62,14.1,15.6
 2003/05/02, 0:30,18.2,56,14.5,15.9
 2003/05/02, 0:45,17.8,58,14.4,15.9
 2003/05/02, 1:00,17.5,58,14.4,15.9
 2003/05/02, 1:15,17.2,58,14.4,15.9
 2003/05/02, 1:30,17.1,59,14.3,15.9
 2003/05/02, 1:45,17,59,14.2,15.9
 2003/05/02, 2:00,16.8,59,14.2,15.8
 2003/05/02, 2:15,16.6,59.5,14.2,15.8
 2003/05/02, 2:30,16.5,60,14.1,15.8
 2003/05/02, 2:45,16.5,60,14,15.8
 2003/05/02, 3:00,16.5,60,13.4,15.6
 2003/05/02, 3:15,16.4,61,13.3,15.7
 2003/05/02, 3:30,16.3,61,13.2,15.7
 2003/05/02, 3:45,16.2,62,13.1,15.6
 2003/05/02, 4:00,16.1,62,13,15.6
 2003/05/02, 4:15,16,62,12.9,15.6
 2003/05/02, 4:30,16,63,12.8,15.6
 2003/05/02, 4:45,15.9,63,12.7,15.6
 2003/05/02, 5:00,15.9,63,12.7,15.5
 2003/05/02, 5:15,15.8,61.5,12.9,15.4
 2003/05/02, 5:30,15.6,63,12.7,15.6
 2003/05/02, 5:45,15.6,63,12.8,15.6
 2003/05/02, 6:00,15.5,63,13.3,15.6
 2003/05/02, 6:15,15.5,63.5,14.4,15.6
 2003/05/02, 6:30,15.4,63,15.6,15.6
 2003/05/02, 6:45,15.4,64.5,16.6,15.6
 2003/05/02, 7:00,15.7,65,17.4,15.2
 2003/05/02, 7:15,15.9,70,17.8,15.6
 2003/05/02, 7:30,16.5,73,18.2,15.6
 2003/05/02, 7:45,16.5,71.5,18.6,15.8
 2003/05/02, 8:00,16.4,69,19,15.7
 2003/05/02, 8:15,16.6,68,18.8,15.7
 2003/05/02, 8:30,16.9,67,19,15.7
 2003/05/02, 8:45,17.1,66.5,19.1,15.8
 2003/05/02, 9:00,17.4,66,19,15.8
 2003/05/02, 9:15,17.9,65,18.8,15.8
 2003/05/02, 9:30,18.2,65,18.6,15.8
 2003/05/02, 9:45,18.5,63.5,18.5,15.8
 2003/05/02,10:00,18.6,64,18.4,15.8
 2003/05/02,10:15,19,64,18.4,15.7
 2003/05/02,10:30,19.2,65,18.7,15.9
 2003/05/02,10:45,19.5,63.5,18.5,16
 2003/05/02,11:00,20.2,70,18.5,16
 2003/05/02,11:15,20.3,68.5,18.7,16
 2003/05/02,11:30,20.2,64,18.6,16
 2003/05/02,11:45,20.2,65,18.5,16.1
 2003/05/02,12:00,20.3,64,18.8,16.1
 2003/05/02,12:15,20.5,63,18.9,16.1
 2003/05/02,12:30,20.7,63,18.9,16.1
 2003/05/02,12:45,20.8,62.5,19.1,16.1
 2003/05/02,13:00,20.9,62,19.2,16.2
 2003/05/02,13:15,21,61.5,19.5,16.2
 2003/05/02,13:30,21.3,60,19.5,16.3
 2003/05/02,13:45,22.2,57,19.8,16.4
 2003/05/02,14:00,22.9,55,19.8,16.4
 2003/05/02,14:15,23.2,54,20.1,16.4
 2003/05/02,14:30,23.5,53,20.3,16.4
 2003/05/02,14:45,23.8,52,20.6,16.5
 2003/05/02,15:00,23.8,50,20.9,16.5
 2003/05/02,15:15,23.8,48.5,21.4,16.5
 2003/05/02,15:30,23.4,47,21.7,16.5
 2003/05/02,15:45,23.1,51,21.2,16.6
 2003/05/02,16:00,23,52,21.6,16.6
 2003/05/02,16:15,22.8,52,21.8,16.7
 2003/05/02,16:30,22.6,54,21.7,16.7
 2003/05/02,16:45,23,53,21.6,16.8
 2003/05/02,17:00,23,53,21.6,16.8
 2003/05/02,17:15,23.4,52.5,21.7,16.9
 2003/05/02,17:30,23.1,54,21.8,16.9
 2003/05/02,17:45,22.9,55,21.8,17
 2003/05/02,18:00,22.7,55,21.6,17
 2003/05/02,18:15,22.5,56,21.4,17
 2003/05/02,18:30,22.3,57,21.2,17.1
 2003/05/02,18:45,22.3,59,21.1,17
 2003/05/02,19:00,22.7,61,20.9,16.8
 2003/05/02,19:15,22.6,60,20.8,16.9
 2003/05/02,19:30,22.4,63,20.7,16.9
 2003/05/02,19:45,22.5,58.5,20.6,16.9
 2003/05/02,20:00,22.2,58,20.5,17
 2003/05/02,20:15,22.5,59,20.4,17
 2003/05/02,20:30,22.9,58,20.3,17.1
 2003/05/02,20:45,22.2,58,20,17.1
 2003/05/02,21:00,21.9,60,20.1,17.2
 2003/05/02,21:15,21.8,59,19.8,17.2
 2003/05/02,21:30,21.7,60,19.8,17.2
 2003/05/02,21:45,21.7,60,19.9,17.3
 2003/05/02,22:00,21.7,60,19.7,17.3
 2003/05/02,22:15,21.6,61,19.2,17.1
 2003/05/02,22:30,21.5,61,18.9,16.8
 2003/05/02,22:45,21.5,60.5,18.6,16.9
 2003/05/02,23:00,21.8,62,18.1,16.5
 2003/05/02,23:15,22.1,63,17.8,16.7
 2003/05/02,23:30,22.1,63,17.5,16.8
 2003/05/02,23:45,22.1,64.5,17.4,16.6
 2003/05/03, 0:00,22,65,17.2,16.6
 2003/05/03, 0:15,22,65,17.2,16.6
 2003/05/03, 0:30,21.9,63,17,16.5
 2003/05/03, 0:45,21.1,62,17.3,16.5
 2003/05/03, 1:00,20.7,62,17.3,16.4
 2003/05/03, 1:15,20.5,62,17.2,16.4
 2003/05/03, 1:30,20.3,62,16.9,16.4
 2003/05/03, 1:45,20.1,62,16.8,16.5
 2003/05/03, 2:00,20,62,16.8,16.5
 2003/05/03, 2:15,19.9,62,16.6,16.5
 2003/05/03, 2:30,19.7,62,16.6,16.5
 2003/05/03, 2:45,19.5,62,16.5,16.5
 2003/05/03, 3:00,19.4,62,16.3,16.5
 2003/05/03, 3:15,19.4,62,16.2,16.5
 2003/05/03, 3:30,19.2,62,16.2,16.5
 2003/05/03, 3:45,19.1,63,15.4,16.4
 2003/05/03, 4:00,19.1,63,15.1,16.5
 2003/05/03, 4:15,19,64,14.9,16.5
 2003/05/03, 4:30,19,64,14.8,16.5
 2003/05/03, 4:45,18.9,64,15.1,16.5
 2003/05/03, 5:00,18.9,65,15.4,16.5
 2003/05/03, 5:15,18.8,65,15.1,16.5
 2003/05/03, 5:30,18.8,65,14.9,16.6
 2003/05/03, 5:45,18.8,64.5,14.9,16.5
 2003/05/03, 6:00,18.7,64,15.3,16.5
 2003/05/03, 6:15,18.7,64,16.3,16.5
 2003/05/03, 6:30,18.8,64,17.3,16.5
 2003/05/03, 6:45,19,65,18.2,16.8
 2003/05/03, 7:00,19,65,19,16.7
 2003/05/03, 7:15,19,65.5,19.6,16.7
 2003/05/03, 7:30,19.2,67,20.5,16.7
 2003/05/03, 7:45,19.5,68,21,16.7
 2003/05/03, 8:00,19.6,69,21.5,16.5
 2003/05/03, 8:15,19.9,69,21.8,16.2
 2003/05/03, 8:30,20.1,68,22.1,16.2
 2003/05/03, 8:45,20.5,69.5,22.2,16.2
 2003/05/03, 9:00,20.6,68,22.1,16.3
 2003/05/03, 9:15,20.8,65.5,21.7,16.3
 2003/05/03, 9:30,21,65,21.4,16.3
 2003/05/03, 9:45,21.4,66,21.1,16.4
 2003/05/03,10:00,22.1,66,21.3,16.9
 2003/05/03,10:15,22,65.5,21.1,16.9
 2003/05/03,10:30,22.2,67,21.1,16.7
 2003/05/03,10:45,22.4,63,21.3,16.5
 2003/05/03,11:00,22.5,59,21.5,16.6
 2003/05/03,11:15,22.5,59.5,21.5,16.6
 2003/05/03,11:30,22.7,57,21.6,16.6
 2003/05/03,11:45,23.2,54,22,16.6
 2003/05/03,12:00,23.4,54,22,16.7
 2003/05/03,12:15,23.4,52.5,22.2,16.9
 2003/05/03,12:30,23.6,51,22.6,16.8
 2003/05/03,12:45,24.2,48.5,22.5,16.9
 2003/05/03,13:00,24.5,51,22.7,16.9
 2003/05/03,13:15,24.4,50.5,22.8,16.9
 2003/05/03,13:30,24.7,47,22.9,17
 2003/05/03,13:45,25.4,43.5,23.1,17
 2003/05/03,14:00,25.5,42,23.4,17.3
 2003/05/03,14:15,25.8,40.5,23.6,17.3
 2003/05/03,14:30,25.3,44,23.8,17.3
 2003/05/03,14:45,26,41,23.9,17.4
 2003/05/03,15:00,26.4,39,24,17.5
 2003/05/03,15:15,26.5,41.5,24,17.2
 2003/05/03,15:30,26.7,40,24.2,17.3
 2003/05/03,15:45,26.8,40,24.2,17.1
 2003/05/03,16:00,27,39,24.4,17.2
 2003/05/03,16:15,26.8,39.5,24.4,17
 2003/05/03,16:30,27,42,24.4,17.1
 2003/05/03,16:45,26.8,43,24.4,17.2
 2003/05/03,17:00,26.7,47,24.3,17.2
 2003/05/03,17:15,26.6,47.5,24.2,17.2
 2003/05/03,17:30,26.5,49,24.1,17.4
 2003/05/03,17:45,26.3,48,23.9,17.1
 2003/05/03,18:00,26.2,48,23.8,17.1
 2003/05/03,18:15,26,47.5,23.5,17.1
 2003/05/03,18:30,25.8,48,23.1,17.2
 2003/05/03,18:45,25.4,48,22.8,17.2
 2003/05/03,19:00,25.3,48,22.4,17.2
 2003/05/03,19:15,24.9,49,22.1,17
 2003/05/03,19:30,24.5,50,21.7,17.1
 2003/05/03,19:45,24.5,49.5,21,17.2
 2003/05/03,20:00,24.5,49,20.6,17.2
 2003/05/03,20:15,24.6,50,20.2,17.2
 2003/05/03,20:30,24.6,51,20,17.3
 2003/05/03,20:45,24.7,52.5,19.7,17.2
 2003/05/03,21:00,24.3,50,19.8,17.1
 2003/05/03,21:15,24.1,51,19.5,17
 2003/05/03,21:30,24.4,52,19.2,17
 2003/05/03,21:45,24.6,55,18.7,17
 2003/05/03,22:00,24.5,56,18.5,17
 2003/05/03,22:15,24.4,56,18.3,17.1
 2003/05/03,22:30,24.3,56,18,17.1
 2003/05/03,22:45,24.1,56,17.8,17.1
 2003/05/03,23:00,24.1,56,17.5,17.2
 2003/05/03,23:15,24,56,17.4,17.2
 2003/05/03,23:30,24,55,17.3,17.2
 2003/05/03,23:45,23.8,54.5,18,17.4
 2003/05/04, 0:00,24,56,18.5,17.4
 2003/05/04, 0:15,23.8,57,18.5,17.4
 2003/05/04, 0:30,23.3,53,18.8,17.3
 2003/05/04, 0:45,22.6,53.5,18.8,17.2
 2003/05/04, 1:00,22.7,54,18.5,17.2
 2003/05/04, 1:15,22.5,55,18.4,17.2
 2003/05/04, 1:30,22.3,56,18.3,17.2
 2003/05/04, 1:45,22.1,57.5,18.2,17.2
 2003/05/04, 2:00,22.1,60,18.1,17.2
 2003/05/04, 2:15,21.6,63,18.2,17.2
 2003/05/04, 2:30,21.2,62,18.3,17.2
 2003/05/04, 2:45,20.9,61.5,18.1,17.2
 2003/05/04, 3:00,20.7,60,18.1,17.3
 2003/05/04, 3:15,20.5,59.5,17.9,17.3
 2003/05/04, 3:30,20.3,59,17.8,17.3
 2003/05/04, 3:45,20.1,59,17.8,17.2
 2003/05/04, 4:00,20.2,59,17.6,17.1
 2003/05/04, 4:15,20.1,59.5,17.5,17.1
 2003/05/04, 4:30,20,60,17.5,17.1
 2003/05/04, 4:45,19.9,60,17.4,17.1
 2003/05/04, 5:00,19.7,60,17.2,17.1
 2003/05/04, 5:15,19.6,60,17.2,17.1
 2003/05/04, 5:30,19.5,60,16.8,17.1
 2003/05/04, 5:45,19.5,59.5,17,17
 2003/05/04, 6:00,19.4,60,17.1,17
 2003/05/04, 6:15,19.4,61,17.1,17
 2003/05/04, 6:30,19.2,61,17.1,17.1
 2003/05/04, 6:45,19.2,61,17.2,17.1
 2003/05/04, 7:00,19.1,61,17.2,17.1
 2003/05/04, 7:15,19.1,61,17.6,17
 2003/05/04, 7:30,19.3,60,18,17
 2003/05/04, 7:45,19.6,60.5,18.6,17
 2003/05/04, 8:00,20,61,18.7,16.9
 2003/05/04, 8:15,20.1,62,18.9,16.8
 2003/05/04, 8:30,20.2,59,19.5,16.8
 2003/05/04, 8:45,20.4,57.5,19.5,16.9
 2003/05/04, 9:00,20.7,57,19.5,16.9
 2003/05/04, 9:15,21.1,55.5,19.5,16.9
 2003/05/04, 9:30,21.6,56,19.6,17.1
 2003/05/04, 9:45,21.8,55,20,17
 2003/05/04,10:00,22.1,54,20.3,17
 2003/05/04,10:15,21.9,53,20.2,17.2
 2003/05/04,10:30,21.8,53,20.3,17.2
 2003/05/04,10:45,22,53,20.6,17.2
 2003/05/04,11:00,22.1,53,20.8,17.3
 2003/05/04,11:15,22.2,52,20.8,17.3
 2003/05/04,11:30,22.3,52,20.9,17.1
 2003/05/04,11:45,22.4,53,21,17.2
 2003/05/04,12:00,22.7,52,21.1,17.2
 2003/05/04,12:15,22.9,52,21.3,17.1
 2003/05/04,12:30,23,51,21.5,17.3
 2003/05/04,12:45,23.1,49.5,21.6,17.2
 2003/05/04,13:00,23.2,49,21.6,17.2
 2003/05/04,13:15,23.5,49.5,21.9,17.3
 2003/05/04,13:30,24.3,48,22.1,17.3
 2003/05/04,13:45,24.5,47,22.1,17.4
 2003/05/04,14:00,24.7,46,22.4,17.4
 2003/05/04,14:15,24.8,46,22.4,17.4
 2003/05/04,14:30,24.6,46,22.6,17.5
 2003/05/04,14:45,24.5,46.5,23,17.9
 2003/05/04,15:00,25.1,47,22.8,18.1
 2003/05/04,15:15,25.1,48.5,23,18.1
 2003/05/04,15:30,25.2,47,23,17.7
 2003/05/04,15:45,25.1,47,23.1,17.7
 2003/05/04,16:00,25.1,48,23.1,17.7
 2003/05/04,16:15,25.1,48,23.2,17.9
 2003/05/04,16:30,25.2,49,23.2,17.9
 2003/05/04,16:45,25.1,49.5,23.3,17.9
 2003/05/04,17:00,24.7,49,23.2,17.8
 2003/05/04,17:15,24.6,48,23.2,17.9
 2003/05/04,17:30,24.5,48,23.2,17.9
 2003/05/04,17:45,24.6,48,23.1,18
 2003/05/04,18:00,24.7,49,23.1,18
 2003/05/04,18:15,24.7,54,23,18
 2003/05/04,18:30,24.6,55,22.8,18.1
 2003/05/04,18:45,24.4,50,22.5,18.1
 2003/05/04,19:00,24.3,52,22.2,18.4
 2003/05/04,19:15,24,52,22,18.1
 2003/05/04,19:30,23.9,50,21.7,18.1
 2003/05/04,19:45,23.8,48.5,21.6,17.9
 2003/05/04,20:00,23.7,45,21.5,17.9
 2003/05/04,20:15,23.5,42.5,21.4,17.5
 2003/05/04,20:30,23.4,43,21.2,17.5
 2003/05/04,20:45,23.2,42,21.1,17.5
 2003/05/04,21:00,23.1,41,20.9,17.6
 2003/05/04,21:15,23,41.5,20.6,17.6
 2003/05/04,21:30,22.7,41,20.4,17.6
 2003/05/04,21:45,22.5,43.5,20.5,17.5
 2003/05/04,22:00,22.7,46,20.7,17.4
 2003/05/04,22:15,22.7,47,20.6,17.5
 2003/05/04,22:30,22.8,49,20.6,17.8
 2003/05/04,22:45,22.6,49,20.4,17.9
 2003/05/04,23:00,22.6,49,20.3,17.9
 2003/05/04,23:15,22.8,49,20.1,17.9
 2003/05/04,23:30,22.9,50,19.9,17.9
 2003/05/04,23:45,22.9,52,19.7,17.9
 2003/05/05, 0:00,22.8,53,19.6,17.9
 2003/05/05, 0:15,22.7,53,19.4,18
 2003/05/05, 0:30,22.6,54,19.2,18
 2003/05/05, 0:45,22.5,51.5,19.4,18
 2003/05/05, 1:00,22.3,52,19.2,17.8
 2003/05/05, 1:15,22.1,53,18.8,17.9
 2003/05/05, 1:30,22,53,18.7,17.9
 2003/05/05, 1:45,21.8,53,18.7,17.8
 2003/05/05, 2:00,21.6,53,18.5,17.8
 2003/05/05, 2:15,21.4,53,18.5,17.8
 2003/05/05, 2:30,21.2,53,18.3,17.8
 2003/05/05, 2:45,21,53.5,18.1,17.8
 2003/05/05, 3:00,20.9,54,18,17.8
 2003/05/05, 3:15,20.8,54,17.9,17.8
 2003/05/05, 3:30,20.6,54,17.7,17.8
 2003/05/05, 3:45,20.5,54,17.5,17.8
 2003/05/05, 4:00,20.3,54,17.5,17.8
 2003/05/05, 4:15,20.1,54.5,17.4,17.8
 2003/05/05, 4:30,20.1,55,17.3,17.8
 2003/05/05, 4:45,20,55,17.1,17.8
 2003/05/05, 5:00,19.9,55,17,17.8
 2003/05/05, 5:15,19.8,55,16.9,17.8
 2003/05/05, 5:30,19.6,56,16.9,17.8
 2003/05/05, 5:45,19.5,55,17,17.5
 2003/05/05, 6:00,19.4,56,17.6,17.4
 2003/05/05, 6:15,19.4,56,18.7,17.4
 2003/05/05, 6:30,19.3,56,19.6,17.4
 2003/05/05, 6:45,19.5,58.5,20.4,17.4
 2003/05/05, 7:00,19.8,59,21,17.6
 2003/05/05, 7:15,20,58,21.5,17.6
 2003/05/05, 7:30,20,58,21.6,17.3
 2003/05/05, 7:45,20.8,62.5,22,17.2
 2003/05/05, 8:00,20.3,59,22,17.3
 2003/05/05, 8:15,20.3,56.5,22.1,17.5
 2003/05/05, 8:30,20.3,55,22.3,17.4
 2003/05/05, 8:45,20.5,55,22,17.4
 2003/05/05, 9:00,20.7,56,21.8,17.4
 2003/05/05, 9:15,21.1,56,21.6,17.4
 2003/05/05, 9:30,21.6,57,21.6,17.3
 2003/05/05, 9:45,21.9,56.5,21.4,17.3
 2003/05/05,10:00,22.1,55,21.3,17.4
 2003/05/05,10:15,22.4,56,21.2,17.4
 2003/05/05,10:30,22.3,54,21.5,17.4
 2003/05/05,10:45,22.4,48.5,21.2,17.5
 2003/05/05,11:00,22.4,48,21.2,17.5
 2003/05/05,11:15,22.5,47.5,21.4,17.5
 2003/05/05,11:30,22.7,47,21.5,17.5
 2003/05/05,11:45,22.7,47,21.6,17.6
 2003/05/05,12:00,22.8,47,21.8,17.6
 2003/05/05,12:15,23,47,21.9,17.6
 2003/05/05,12:30,23.1,47,22.1,17.9
 2003/05/05,12:45,23.4,46.5,22.2,17.9
 2003/05/05,13:00,23.5,46,22.4,17.9
 2003/05/05,13:15,23.8,44.5,22.5,17.9
 2003/05/05,13:30,24.1,45,22.6,17.9
 2003/05/05,13:45,24.8,42.5,22.8,18
 2003/05/05,14:00,25,42,23,17.9
 2003/05/05,14:15,25,41,23.1,18
 2003/05/05,14:30,25,41,23.3,18
 2003/05/05,14:45,24.9,42,23.5,18
 2003/05/05,15:00,24.9,43,23.5,18
 2003/05/05,15:15,24.9,41,23.5,18.1
 2003/05/05,15:30,25.1,40,23.5,18.1
 2003/05/05,15:45,25,40,23.6,18.3
 2003/05/05,16:00,25.1,39,23.7,18.3
 2003/05/05,16:15,25.1,40,23.7,18.4
 2003/05/05,16:30,25.1,38,23.6,18.4
 2003/05/05,16:45,25.1,34,23.6,18.4
 2003/05/05,17:00,25.1,36,23.6,18.4
 2003/05/05,17:15,25,38,23.6,18.5
 2003/05/05,17:30,25,39,23.6,18.7
 2003/05/05,17:45,25,40,23.5,18.5
 2003/05/05,18:00,25,39,23.5,18.5
 2003/05/05,18:15,24.8,41,23.4,18.5
 2003/05/05,18:30,24.6,43,23.1,18.6
 2003/05/05,18:45,24.4,43.5,22.9,18.2
 2003/05/05,19:00,24.1,45,22.8,18.2
 2003/05/05,19:15,23.9,47,22.8,18.3
 2003/05/05,19:30,23.9,48,22.4,18.2
 2003/05/05,19:45,24,47,22.1,18.1
 2003/05/05,20:00,23.6,47,21.8,18.2
 2003/05/05,20:15,24,48,21.9,18.2
 2003/05/05,20:30,23.8,49,21.7,18.3
 2003/05/05,20:45,23.6,49,21.7,18.3
 2003/05/05,21:00,23.9,49,21.7,18.3
 2003/05/05,21:15,23.8,49.5,21.4,18.4
 2003/05/05,21:30,23.7,50,21.3,18.4
 2003/05/05,21:45,23.9,50,21.1,18.4
 2003/05/05,22:00,23.7,51,20.7,18.5
 2003/05/05,22:15,23.8,53.5,20.6,18
 2003/05/05,22:30,23.8,54,20.4,18.1
 2003/05/05,22:45,23.8,53.5,20.2,18.1
 2003/05/05,23:00,23.8,55,20,18.1
 2003/05/05,23:15,23.6,54,19.8,18.1
 2003/05/05,23:30,23.5,54,19.7,18.2
 2003/05/05,23:45,23.5,56.5,19.6,18.2
 2003/05/06, 0:00,23.5,58,19.6,18.2
 2003/05/06, 0:15,23.4,59,20,18.4
 2003/05/06, 0:30,23.1,59,20.5,18.5
 2003/05/06, 0:45,22.8,59,20.5,18.5
 2003/05/06, 1:00,22.6,60,20.5,18.5
 2003/05/06, 1:15,22.5,60,20.4,18.5
 2003/05/06, 1:30,22.3,61,20.4,18.5
 2003/05/06, 1:45,22.1,61,20.3,18.5
 2003/05/06, 2:00,22,61,20.3,18.6
 2003/05/06, 2:15,21.9,61,20.2,18.6
 2003/05/06, 2:30,21.8,61,20.2,18.6
 2003/05/06, 2:45,21.8,61,20.1,18.1
 2003/05/06, 3:00,21.7,61,20,18.3
 2003/05/06, 3:15,21.5,61.5,20,18.3
 2003/05/06, 3:30,21.5,61,19.9,18.3
 2003/05/06, 3:45,21.4,61.5,19.8,18.4
 2003/05/06, 4:00,21.3,61,19.7,18.4
 2003/05/06, 4:15,21.2,61.5,19.6,18.4
 2003/05/06, 4:30,21.1,62,19.6,18.4
 2003/05/06, 4:45,21,62,19.5,18.4
 2003/05/06, 5:00,21,61,19.4,18.2
 2003/05/06, 5:15,21,61,19.4,18.2
 2003/05/06, 5:30,20.9,62,19.4,18.3
 2003/05/06, 5:45,20.8,62,19.5,18.3
 2003/05/06, 6:00,20.6,63,19.8,18.3
 2003/05/06, 6:15,20.7,63,20.6,18.3
 2003/05/06, 6:30,20.8,63,21.2,18.3
 2003/05/06, 6:45,20.8,63,21.8,18
 2003/05/06, 7:00,20.9,62,22.1,17.9
 2003/05/06, 7:15,21,64,22.5,18
 2003/05/06, 7:30,21.4,67,23.3,17.9
 2003/05/06, 7:45,21.7,68.5,23.6,18
 2003/05/06, 8:00,21.7,67,23.9,18.1
 2003/05/06, 8:15,21.9,66,24,18.1
 2003/05/06, 8:30,22.2,66,24.1,18.4
 2003/05/06, 8:45,22.5,65.5,24,18.4
 2003/05/06, 9:00,22.7,64,23.9,18.4
 2003/05/06, 9:15,23,64,23.8,18.1
 2003/05/06, 9:30,23.3,63,23.8,18.2
 2003/05/06, 9:45,23.6,60.5,23.7,18.2
 2003/05/06,10:00,23.8,59,23.8,18.4
 2003/05/06,10:15,24,58.5,24,18.2
 2003/05/06,10:30,24.2,58,23.9,18.3
 2003/05/06,10:45,24.9,54.5,24,18.3
 2003/05/06,11:00,25.1,54,24.1,18.3
 2003/05/06,11:15,25,55,24.3,18.6
 2003/05/06,11:30,25,54,24.4,18.7
 2003/05/06,11:45,25,54,24.4,18.7
 2003/05/06,12:00,25.2,51,24.5,18.7
 2003/05/06,12:15,25.2,50.5,24.5,18.8
 2003/05/06,12:30,25.3,51,24.5,19
 2003/05/06,12:45,25.4,51.5,24.6,18.5
 2003/05/06,13:00,25.3,53,24.5,18.7
 2003/05/06,13:15,25.4,52,24.5,18.6
 2003/05/06,13:30,25.3,53,24.4,18.7
 2003/05/06,13:45,25.2,54.5,24.2,18.8
 2003/05/06,14:00,25.3,56,24.3,18.8
 2003/05/06,14:15,25.5,53,24.3,18.8
 2003/05/06,14:30,25.4,53,24.3,18.9
 2003/05/06,14:45,25.4,54,24.2,18.9
 2003/05/06,15:00,25.2,56,24.4,19
 2003/05/06,15:15,25.3,56.5,24.5,19.3
 2003/05/06,15:30,25.2,57,24.5,19.1
 2003/05/06,15:45,25.1,57,24.6,19.2
 2003/05/06,16:00,25.1,57,24.5,19.2
 2003/05/06,16:15,25.1,57.5,24.4,19.2
 2003/05/06,16:30,25.1,58,24.2,19.3
 2003/05/06,16:45,25,58,24,19.3
 2003/05/06,17:00,24.9,58,23.9,19.4
 2003/05/06,17:15,24.9,58,23.9,19.4
 2003/05/06,17:30,24.9,58,23.8,19.5
 2003/05/06,17:45,24.8,58,23.7,19.5
 2003/05/06,18:00,24.8,58,23.6,19.5
 2003/05/06,18:15,24.7,58,23.5,19.6
 2003/05/06,18:30,24.7,58,23.4,19.2
 2003/05/06,18:45,24.7,58.5,23.3,19.1
 2003/05/06,19:00,24.7,59,23.1,19.2
 2003/05/06,19:15,24.5,59,23,19.2
 2003/05/06,19:30,24.5,60,22.8,19.2
 2003/05/06,19:45,24.5,60,22.5,18.9
 2003/05/06,20:00,24.3,60,22.4,18.9
 2003/05/06,20:15,24.1,60.5,22.1,18.9
 2003/05/06,20:30,24,61,21.9,18.9
 2003/05/06,20:45,24,62,22.2,18.9
 2003/05/06,21:00,24,62,22.5,19
 2003/05/06,21:15,24.1,62,22.5,19
 2003/05/06,21:30,24.1,62,22.4,19
 2003/05/06,21:45,24.1,61,22.3,19.1
 2003/05/06,22:00,24.1,62,22.3,18.9
 2003/05/06,22:15,24,62,22.2,19
 2003/05/06,22:30,24,62,22.1,19
 2003/05/06,22:45,24,62,22.1,19
 2003/05/06,23:00,23.9,62,22.1,19.1
 2003/05/06,23:15,23.9,61,22,19.1
 2003/05/06,23:30,23.8,61,22,19.1
 2003/05/06,23:45,23.8,61,21.9,19.1
 2003/05/07, 0:00,23.7,60,21.8,19.2
 2003/05/07, 0:15,23.5,61,21.7,19.2
 2003/05/07, 0:30,23.5,61,21.6,19.2
 2003/05/07, 0:45,23.5,61,21.5,19.2
 2003/05/07, 1:00,23.4,61,21.5,19.3
 2003/05/07, 1:15,23.3,62,21.5,19.2
 2003/05/07, 1:30,23.1,62,21.3,19
 2003/05/07, 1:45,23,63,21.2,19
 2003/05/07, 2:00,22.8,64,21.2,19
 2003/05/07, 2:15,22.6,65,21.1,19
 2003/05/07, 2:30,22.6,66,21.1,19.1
 2003/05/07, 2:45,22.5,67,21.1,19.1
 2003/05/07, 3:00,22.4,68,21,19.1
 2003/05/07, 3:15,22.3,68.5,20.9,19.1
 2003/05/07, 3:30,22.2,69,20.9,19.1
 2003/05/07, 3:45,22.1,69,20.9,19.1
 2003/05/07, 4:00,22.1,69,20.9,19.2
 2003/05/07, 4:15,22,70.5,20.8,19.2
 2003/05/07, 4:30,21.9,71,20.7,18.8
 2003/05/07, 4:45,21.9,71.5,20.7,19.1
 2003/05/07, 5:00,21.9,72,20.7,19.1
 2003/05/07, 5:15,21.8,72,20.6,19.2
 2003/05/07, 5:30,21.8,73,20.6,19.2
 2003/05/07, 5:45,21.8,73.5,20.6,19.2
 2003/05/07, 6:00,21.7,74,20.6,19.2
 2003/05/07, 6:15,21.7,74,20.6,19.2
 2003/05/07, 6:30,21.7,74,20.7,19.3
 2003/05/07, 6:45,21.7,74,20.6,19
 2003/05/07, 7:00,21.7,75,20.7,18.8
 2003/05/07, 7:15,21.7,75,20.7,18.8
 2003/05/07, 7:30,21.7,75,20.8,18.7
 2003/05/07, 7:45,21.7,75,20.9,18.7
 2003/05/07, 8:00,21.7,77,21,18.7
 2003/05/07, 8:15,21.9,76,21.2,18.7
 2003/05/07, 8:30,21.9,78,21.3,18.7
 2003/05/07, 8:45,22,77.5,21.5,18.8
 2003/05/07, 9:00,22.6,76,21.5,18.7
 2003/05/07, 9:15,23.1,79,22,18.7
 2003/05/07, 9:30,23.2,85,21.8,18.8
 2003/05/07, 9:45,23.1,80.5,22,18.8
 2003/05/07,10:00,23,77,22.3,18.8
 2003/05/07,10:15,23,78,22.4,18.8
 2003/05/07,10:30,23,77,22.5,18.9
 2003/05/07,10:45,23.1,75.5,22.8,18.9
 2003/05/07,11:00,23.4,74,23.1,18.9
 2003/05/07,11:15,23.5,72,23.1,19
 2003/05/07,11:30,23.5,72,23.1,19
 2003/05/07,11:45,23.6,72,23,19.3
 2003/05/07,12:00,23.7,71,23.1,19.3
 2003/05/07,12:15,24.2,68.5,23.3,19.4
 2003/05/07,12:30,24.5,67,23.2,19.4
 2003/05/07,12:45,24.4,68,23.4,19.4
 2003/05/07,13:00,24.5,68,23.6,19.4
 2003/05/07,13:15,24.6,68.5,23.4,19.5
 2003/05/07,13:30,24.9,70,23.5,19.5
 2003/05/07,13:45,24.5,73,23.5,19.5
 2003/05/07,14:00,24.3,75,23.6,19.6
 2003/05/07,14:15,24.1,76.5,23.5,19.6
 2003/05/07,14:30,24.6,78,23.4,19.6
 2003/05/07,14:45,24.5,77,23.4,19.7
 2003/05/07,15:00,24.6,77,23.3,19.7
 2003/05/07,15:15,24.5,76,23.2,19.7
 2003/05/07,15:30,24.5,75,23.4,19.7
 2003/05/07,15:45,24.5,75,23.2,19.8
 2003/05/07,16:00,24.5,76,23.3,19.5
 2003/05/07,16:15,24.5,75.5,23.2,19.5
 2003/05/07,16:30,24.4,75,23.2,19.5
 2003/05/07,16:45,24.2,75,23,19.5
 2003/05/07,17:00,24.1,75,23.1,19.4
 2003/05/07,17:15,24.1,75.5,23,19.4
 2003/05/07,17:30,24.1,76,23,19.5
 2003/05/07,17:45,24.2,77,22.9,19.5
 2003/05/07,18:00,24.2,77,23,19.5
 2003/05/07,18:15,24.2,77,23,19.5
 2003/05/07,18:30,24.2,77,22.9,19.3
 2003/05/07,18:45,24.2,77.5,22.7,19.3